Regional Weather Roundup
Issued by NWS

Home | Current Version | Previous Version | Text Only | Print | Product List | Glossary Off
Versions: 1 2 3 4 5 6 7 8 9 10 11 12 13 14 15 16 17 18 19 20 21 22 23 24 25 26 27

000
ASUS45 KBOU 211610
RWRCO

WEATHER ROUNDUP FOR COLORADO
NATIONAL WEATHER SERVICE DENVER/BOULDER CO
900 AM MST SUN JAN 21 2018

NOTE: "FAIR" INDICATES FEW OR NO CLOUDS BELOW 12000 FEET WITH NO
SIGNIFICANT WEATHER AND/OR OBSTRUCTIONS TO VISIBILITY.

COZ001>005-013-030-031-211700-
...NORTHWEST COLORADO...

CITY           SKY/WX    TMP DP  RH WIND       PRES   REMARKS
CRAIG          SNOW      21  17  84 SW15      29.79R VSB 1/2 WCI   8
HAYDEN         LGT SNOW N/A N/A N/A SW13      29.79R
MEEKER         SNOW      21  18  88 W7        29.84R VSB 1/2 WCI  12
RABBIT EARS PA SNOW       9   5  85 W10G17    29.65R VSB 1/2 WCI  -6
STEAMBOAT SPGS CLOUDY    19  17  92 CALM      29.77R VSB 3/4
WALDEN         CLOUDY    19  12  73 NE5       29.74R WCI  13
$$

COZ006>008-011-211700-
...WEST CENTRAL VALLEYS...

CITY           SKY/WX    TMP DP  RH WIND       PRES   REMARKS
GRAND JUNCTION LGT SNOW  28  27  96 W12       29.90R VSB 1   WCI  18
MONTROSE       CLOUDY    25  20  81 W18G29    29.86R WCI  11
EAGLE          CLOUDY    25  17  72 W12       29.74R WCI  14
RIFLE          CLOUDY    28  15  58 NW16G25   29.84R WCI  16
DELTA          PTSUNNY   34  26  72 E8        29.79R WCI  27
NUCLA          CLOUDY    28  25  86 W6        29.89R WCI  22
$$

COZ017>023-064>068-211700-
...SOUTHWEST COLORADO...

CITY           SKY/WX    TMP DP  RH WIND       PRES   REMARKS
DURANGO        CLOUDY    23  23 100 SW7       29.76R WCI  15
CORTEZ         SNOW      24  23  96 MISG      29.88R VSB 1/4
PAGOSA SPRINGS LGT SNOW  23  21  93 CALM      29.74R
TELLURIDE      SNOW      16  14  93 W8        29.76R VSB 1/4 WCI   5
WOLF CREEK PAS SNOW       5   5 100 SW10      29.66R VSB 1/2 WCI -10
$$

COZ009-010-012-014-032>034-037-058>063-211700-
...CENTRAL COLORADO...

CITY           SKY/WX    TMP DP  RH WIND       PRES   REMARKS
ASPEN          CLOUDY    20  14  77 VRB3      29.70R
BUENA VISTA    SNOW      24  22  91 E5        29.66R VSB 1/4 WCI  18
COPPER MTN     NOT AVBL
BERTHOUD PASS  SNOW       1  -9  60 SE18G26   29.62R VSB 1/2 WCI -19
COTTONWOOD PAS LGT SNOW  25  23  93 SE5       29.63R VSB 3/4 WCI  19
GUNNISON       PTSUNNY   23  16  74 SW8       29.69R WCI  14
KREMMLING      LGT SNOW  28  21  74 NW10G28   29.69R WCI  19
LEADVILLE      LGT SNOW  15  13  91 NW5       29.62R VSB 3/4 WCI   8
MONARCH PASS   SNOW       9   5  85 W23G29    29.68R VSB 1/4 WCI -12
SALIDA         CLOUDY    26  24  91 SE10G17   29.74R VSB 1/2 WCI  16
SUNLIGHT       SNOW       5   3  92 W14G29    29.69R VSB 1/2 WCI -12
WILKERSON PASS CLOUDY     9   5  85 NE17G23   29.62R WCI -10
$$

COZ069>075-211700-
...SAN LUIS VALLEY/SANGRE DE CRISTO MOUNTAINS...

CITY           SKY/WX    TMP DP  RH WIND       PRES   REMARKS
ALAMOSA        LGT SNOW  22  20  92 SE7       29.65R FOG     WCI  13
DEL NORTE      CLOUDY    24  10  56 W14       29.65R WCI  12
LA VETA PASS   LGT SNOW  16  12  86 N6          N/A  VSB 3/4 WCI   7
SAGUACHE       LGT SNOW  23  21  93 N5        29.67R WCI  17
$$

COZ035-036-038>040-211700-
...NORTHERN COLORADO FRONT RANGE...

CITY           SKY/WX    TMP DP  RH WIND       PRES   REMARKS
DENVER INTL AP SNOW      26  23  88 N13       29.82R VSB 1/2 WCI  15
DMNS CITY PARK NOT AVBL
AURORA         LGT SNOW  25  25 100 N10       29.81R VSB 3/4 WCI  15
FRONT RANGE AP NOT AVBL
ERIE MUNI ARPT LGT SNOW  28  27  96 N7        29.90R WCI  21
BOULDER MUN AP LGT SNOW  28  28 100 N7        29.84R VSB 3/4 WCI  21
CENTENNIAL     LGT SNOW  24  23  96 N14       29.79R VSB 3/4 WCI  12
BROOMFIELD     LGT SNOW  27  27 100 NW9       29.83R VSB 1   WCI  17
FORT COLLINS   SNOW      27  25  93 N16       29.87R VSB 1/2 WCI  14
LONGMONT       LGT SNOW  30  27  90 N12       29.87R VSB 1   WCI  20
$$

COZ041-046-047-076>085-087-088-211700-
...PIKES PEAK/PALMER DIVIDE AND SOUTHERN FOOTHILLS...

CITY           SKY/WX    TMP DP  RH WIND       PRES   REMARKS
COLO. SPRINGS  LGT SNOW  27  19  72 NW15      29.73R FOG     WCI  15
A. F. ACADEMY  LGT SNOW  23  19  85 N20G25    29.71R FOG     WCI   8
SCHRIEVER AFB  SNOWSHWR  25  19  80 N16       29.72R WCI  12
CHEYENNE MTN   LGT SNOW  22  19  88 N20G25    29.62R WCI   7
ELLICOTT       LGT SNOW N/A N/A N/A N17G29    29.69R
FALCON         LGT SNOW  22  19  88 N18G30    29.69R WCI   8
FORT CARSON    LGT SNOW  27  21  76 N24G30    29.70R WCI  13
LIMON          LGT SNOW  25  23  92 N17G26    29.75S FOG     WCI  12
MONUMENT HILL  LGT SNOW N/A N/A N/A N12       29.74R
CANON CITY     LGT SNOW  30  30 100 SE10      29.72R VSB 1   WCI  21
WALSENBURG     CLOUDY    28  28 100 NE5       29.71S WCI  23
TRINIDAD       LGT SNOW  28  27  96 N9        29.70S FOG     WCI  19
$$

COZ042>045-048>051-090-091-211700-
...NORTHEAST COLORADO...

CITY           SKY/WX    TMP DP  RH WIND       PRES   REMARKS
GREELEY ARPT   LGT SNOW  27  25  92 N12       29.87R VSB 1   WCI  17
AKRON          LGT SNOW  27  26  96 N18       29.79S VSB 1   WCI  14
BURLINGTON     CLOUDY    29  28  96 N17       29.73F FOG     WCI  17
WRAY           CLOUDY    32  28  86 N23G29    29.79R WCI  19
YUMA           LGT SNOW  28  27  93 N17       29.79R WCI  16
STERLING       LGT SNOW  30  28  93 NE14G21   29.82F VSB 3/4 WCI  20
HOLYOKE        LGT SNOW  34  30  86 NE24      29.82R WCI  21
FORT MORGAN    LGT SNOW  29  27  92 N16       29.83R WCI  17
$$

COZ086-089-092>099-211700-
...SOUTHEAST COLORADO...

CITY           SKY/WX    TMP DP  RH WIND       PRES   REMARKS
PUEBLO         LGT SNOW  31  27  85 N8        29.75F VSB 3/4 WCI  23
LA JUNTA       CLOUDY    32  25  75 N10       29.74R WCI  24
LAMAR          CLOUDY    32  26  78 NE8G22    29.71F WCI  25
SPRINGFIELD      N/A     29  27  92 N13       29.70R WCI  19
$$




USA.gov is the U.S. government's official web portal to all federal, state and local government web resources and services.